TimeCST,TemperatureF,Dew PointF,Humidity,Sea Level PressureIn,VisibilityMPH,Wind Direction,Wind SpeedMPH,Gust SpeedMPH,PrecipitationIn,Events,Conditions,WindDirDegrees,DateUTC
12:55 AM,45.0,32.0,60,29.83,10.0,West,15.0,-,N/A,,Partly Cloudy,280,2013-11-09 06:55:00
1:55 AM,44.1,32.0,63,29.84,10.0,WNW,13.8,-,N/A,,Clear,290,2013-11-09 07:55:00
2:55 AM,43.0,32.0,65,29.88,10.0,WNW,17.3,-,N/A,,Clear,300,2013-11-09 08:55:00
3:55 AM,41.0,33.1,73,29.92,10.0,WNW,19.6,-,N/A,,Clear,290,2013-11-09 09:55:00
4:18 AM,42.8,33.8,70,29.91,10.0,WNW,17.3,25.3,N/A,,Mostly Cloudy,290,2013-11-09 10:18:00
4:43 AM,41.0,33.8,76,29.92,10.0,WNW,16.1,-,N/A,,Scattered Clouds,290,2013-11-09 10:43:00
4:55 AM,39.9,33.1,77,29.95,10.0,WNW,16.1,23.0,N/A,,Clear,290,2013-11-09 10:55:00
5:55 AM,37.0,32.0,82,29.99,10.0,WNW,10.4,-,N/A,,Clear,290,2013-11-09 11:55:00
6:55 AM,36.0,30.9,82,30.03,10.0,West,12.7,-,N/A,,Clear,280,2013-11-09 12:55:00
7:55 AM,37.0,30.9,79,30.06,10.0,WNW,13.8,-,N/A,,Clear,290,2013-11-09 13:55:00
8:19 AM,37.4,32.0,81,30.05,10.0,WNW,13.8,-,N/A,,Mostly Cloudy,300,2013-11-09 14:19:00
8:55 AM,37.9,32.0,79,30.10,10.0,WNW,15.0,24.2,N/A,,Overcast,300,2013-11-09 14:55:00
9:23 AM,39.2,32.0,75,30.08,10.0,NW,16.1,24.2,N/A,,Scattered Clouds,310,2013-11-09 15:23:00
9:55 AM,43.0,30.9,62,30.11,10.0,NW,19.6,28.8,N/A,,Partly Cloudy,310,2013-11-09 15:55:00
10:17 AM,42.8,30.2,61,30.10,10.0,NW,23.0,31.1,N/A,,Mostly Cloudy,320,2013-11-09 16:17:00
10:55 AM,45.0,30.9,58,30.13,10.0,NW,18.4,31.1,N/A,,Mostly Cloudy,310,2013-11-09 16:55:00
11:23 AM,44.6,30.2,57,30.12,10.0,WNW,18.4,32.2,N/A,,Mostly Cloudy,300,2013-11-09 17:23:00
11:55 AM,46.9,27.0,46,30.14,10.0,NW,25.3,33.4,N/A,,Clear,310,2013-11-09 17:55:00
12:55 PM,48.9,27.0,43,30.14,10.0,NW,25.3,33.4,N/A,,Clear,310,2013-11-09 18:55:00
1:55 PM,48.0,25.0,41,30.15,10.0,NW,24.2,34.5,N/A,,Clear,320,2013-11-09 19:55:00
2:55 PM,46.9,25.0,42,30.17,10.0,NW,23.0,33.4,N/A,,Clear,320,2013-11-09 20:55:00
3:55 PM,46.0,24.1,42,30.20,10.0,NW,21.9,31.1,N/A,,Clear,310,2013-11-09 21:55:00
4:55 PM,42.1,25.0,51,30.24,10.0,NW,11.5,-,N/A,,Clear,320,2013-11-09 22:55:00
5:55 PM,33.1,24.1,70,30.28,10.0,NW,8.1,-,N/A,,Clear,320,2013-11-09 23:55:00
6:55 PM,33.1,24.1,70,30.32,10.0,West,5.8,-,N/A,,Clear,270,2013-11-10 00:55:00
7:55 PM,28.0,21.9,78,30.34,10.0,WNW,8.1,-,N/A,,Clear,290,2013-11-10 01:55:00
8:55 PM,26.1,21.0,81,30.36,10.0,NW,6.9,-,N/A,,Clear,310,2013-11-10 02:55:00
9:55 PM,23.0,19.9,88,30.39,10.0,West,4.6,-,N/A,,Clear,280,2013-11-10 03:55:00
10:55 PM,21.9,19.0,89,30.40,10.0,WNW,5.8,-,N/A,,Clear,290,2013-11-10 04:55:00
11:55 PM,19.0,17.1,92,30.40,10.0,WNW,5.8,-,N/A,,Clear,300,2013-11-10 05:55:00